CAPE
1390 1563 1822 1627 1885 1963 2214 2359 2740 2762 2731 2877 3055 3222 3176 3039 2869 2899 2862 2921 3046 3149 3219 3191 3157 3151 3118 3168 3212 3155 3023 3513 3418 3316 3283 3311 3447 3499 3299 3187 2924 2645 3146 2821 2556 2301 2260 2050 2314 2510 2479 2249 2351 2134 2545 2416 2399 2571 2458 2540 2256 1990 2212 2221 2352 2796 2252 1951 2074 1808 2406 2294 2374 2477 2704 3044 2917 2781 2819 2717 2469 2117 2008 2230 2314
1356 1645 1887 2072 2225 2000 2178 2694 2693 2549 2682 2851 2946 3016 3055 2987 3122 3232 3183 3030 3001 2928 3046 3104 3109 3150 3169 3132 3053 2994 3181 3257 3156 3198 3168 3290 3235 3217 3125 3035 2938 2966 3079 2730 2639 2394 2308 2488 2094 2563 2488 2351 2416 2305 2239 2516 2784 2470 2217 2413 2317 2074 2111 2143 2442 2382 2085 2027 2061 1858 1993 2304 2362 2283 2493 2557 2674 2933 2879 2744 2600 2295 2155 2212 2465
1528 1712 1938 2211 2090 2202 2320 2563 2537 2594 2782 2787 2856 2877 2918 2956 2987 3071 3068 3078 3092 2894 2928 2949 2953 3006 3049 3071 2938 3165 3272 3226 3114 3149 3087 3104 3248 3152 3119 3010 2963 3125 3013 2858 2559 2206 2684 2586 2307 2365 2454 2404 2412 2110 2136 2331 2466 2068 2030 2176 2173 1884 2200 2044 2072 2142 2457 2280 2168 2546 2489 2303 2026 2644 2623 2866 2964 2987 2937 2727 2379 2287 2479 2422 2324
1618 1798 2052 2314 2367 2493 2614 2471 2492 2642 2816 2812 2708 2766 2835 2987 2983 2905 3051 3034 2891 2856 2787 2671 2619 2724 2838 2919 3097 3266 3186 3024 2928 3136 3045 3149 3231 3146 3051 2849 2953 2946 2849 2882 2677 2313 2169 2533 2358 2412 2346 2326 2365 2265 2153 2473 2248 1964 2045 2231 2133 1918 2368 2400 2317 2561 2453 2508 2309 2446 2128 2214 2213 2696 2552 2628 2838 2809 2976 2624 2312 2140 2496 2164 2007
1719 1920 2075 2138 2472 2648 2640 2372 2385 2526 2758 2822 2830 2790 2850 2859 2812 2930 2867 3009 2944 2850 2787 2763 2844 2775 2883 2839 3091 3195 2869 2831 2948 2992 2825 2887 2808 2997 3026 2888 2903 2790 2814 2901 2855 2616 2215 2064 2047 2194 2315 2352 2103 2349 2612 2094 2076 1917 2211 2123 1828 2672 2068 2368 2277 2315 2644 2818 2483 2377 2161 2398 2167 2231 2606 2638 2635 2706 2655 2542 2416 2220 1946 1978 2018
1762 1954 2117 2289 2379 2678 2634 2406 2496 2608 2755 2872 2897 2787 2806 2920 2876 2901 2871 2927 2878 2700 2700 2574 2609 2562 2572 2499 2767 2865 3011 3007 3140 2992 2923 2883 2876 2855 2861 2762 2826 2828 2396 2370 2950 2321 2129 2301 2102 2190 2280 2237 2283 2636 2330 2337 2276 2246 2041 1992 2118 2444 2296 2192 2336 2573 2589 2366 2552 2028 2036 2038 2129 2476 2572 2687 2400 2272 2719 2580 2508 2438 2788 2657 2436
1782 1971 2149 2292 2326 2632 2779 2682 2614 2684 2693 2861 2829 2823 2872 2974 2917 2804 2921 3000 2650 2600 2727 2784 2608 2566 2552 2472 2453 2346 2480 2525 2546 2764 2637 2699 2462 2392 2498 2474 2654 2368 2584 2734 2756 2430 2173 2323 2392 2209 2244 2192 2200 2572 2820 2882 2808 2425 2145 2320 2296 2277 2502 2760 2886 2811 2572 2019 2032 1972 1906 1898 2122 2250 2479 2663 2710 2686 2636 2496 2305 2343 2491 2306 2459
1808 2040 2163 2201 2320 2358 2838 2767 2534 2666 2674 2720 2874 3039 3046 3021 2991 2971 2967 2697 2735 2872 2681 2680 2578 2690 2558 2632 2472 2348 2443 2315 2486 2443 2527 2559 2552 2430 2360 2608 2511 2431 2621 2538 2342 2575 2392 2379 2392 2264 2168 2316 2341 2663 2944 2734 2771 2918 2713 2737 2613 2528 2546 2591 2723 2648 2277 1849 1903 1961 1967 1884 1951 2028 2231 2403 2461 2433 2463 2319 2211 2353 2423 2612 2384
1805 1976 2093 2148 2281 2482 2645 2850 2626 2584 2784 2620 2757 2836 2987 2969 2954 2746 2426 2508 2629 2498 2452 2413 2546 2631 2600 2601 2369 2220 2087 2228 2252 2146 2259 2342 2509 2460 2303 2391 2340 2451 2448 2469 2315 2490 2522 2530 2444 2288 2456 2350 2449 2466 2645 2727 2709 2557 2315 2086 2348 2360 2452 2446 2612 2368 1792 1682 1715 1750 1759 1762 2025 2264 2566 2425 2733 2558 2279 2134 2065 2340 2209 2287 2230
1769 1905 2007 2088 2278 2568 2783 2813 2617 2701 2966 2928 2980 2699 2476 2735 2463 2450 2432 2404 2495 2563 2530 2548 2568 2634 2536 2422 2268 2326 2020 2132 1920 1986 2199 2362 2320 2176 2417 2381 2197 2279 2490 2334 2346 2472 2503 2480 2440 2430 2718 2635 2712 2604 2551 2739 2608 2493 2398 2543 2518 2467 2483 2462 2486 2223 1685 1696 1816 1846 2056 2398 1966 2099 1926 1763 2343 2260 2380 2415 2512 2275 2188 2340 2262
1780 1884 1977 2130 2397 2740 2912 2719 2660 2891 2939 2657 2692 2617 2500 2584 2552 2488 2456 2547 2626 2437 2513 2681 2716 2681 2483 2373 2236 2182 1885 2032 1991 1779 1943 1920 1994 2050 2143 2543 2441 2341 2314 2299 2348 2380 2427 2439 2662 2477 2626 2661 2686 2550 2613 2557 2819 2534 2550 2355 2329 2404 2419 2379 1916 1764 1798 1855 1981 2054 2263 2292 1979 2048 1863 2168 2053 2278 2639 2554 2410 2170 2048 2026 1964
1751 1876 1993 2190 2740 2875 2797 2542 2760 2908 2834 2653 2828 2470 2282 2322 2451 2259 2520 2405 2463 2441 2354 2256 2247 2274 2352 2348 2048 2004 2059 1812 1804 1652 1943 1911 2065 2137 1993 2122 2319 2380 2202 2216 2207 2307 2376 2531 2452 2337 2431 2431 2545 2509 2555 2615 2626 2417 2270 2340 2451 2414 2508 2267 1689 1599 1563 1533 1542 1584 1601 1958 2221 2035 1776 2057 2066 1892 2399 2080 2038 1907 2032 2105 2117
1735 1895 2052 2338 2622 2974 2737 2656 2830 2774 2536 2708 2385 2202 2391 2436 2588 2544 2232 2164 2424 2058 2255 2138 2361 2308 2318 2191 1802 1828 1902 1762 1634 1620 1684 1907 2017 1713 1976 2042 2018 2433 2325 2328 2338 2291 2335 2348 2152 2192 2704 2456 2132 2232 2551 2495 2734 2494 2500 2322 2438 2596 2489 2104 1444 1459 1483 1489 1531 1608 1690 1898 1939 2125 2103 1827 1804 2185 1985 2028 1926 1993 2090 2083 2033
1676 1873 2146 2410 2632 2748 2743 2815 2725 2366 2327 2250 2434 2418 2457 2395 2449 2153 2261 2094 2002 2193 2270 2276 2298 2329 2221 2282 1897 1841 1860 1722 1660 1501 1744 2146 1923 1855 2204 2168 2111 2186 2401 2338 2225 2476 1997 2166 2223 2704 2750 2679 2515 2579 2151 2284 2308 2532 2306 2275 2548 2584 2500 2105 1833 1419 1432 1476 1724 1658 1864 2016 2207 2376 2271 2144 2087 2058 2048 1958 1854 1919 1984 1932 1933
1558 1873 2200 2408 2662 2535 2750 2764 2834 2763 2673 2704 2518 2529 2300 1854 1968 2164 2162 2057 2109 2158 2238 2242 2112 2350 2368 2383 2270 1906 1872 1846 1749 1621 1680 1892 1843 2051 2331 2356 2504 2151 2480 2463 2448 2398 2287 2476 2498 2608 2436 2320 2169 2220 2141 2417 2494 2369 2447 2464 2560 2628 2325 1565 1464 1545 1698 2005 1788 1673 1788 1956 2169 2186 2201 2219 2030 2074 1894 1749 1863 1968 2005 1848 1882
1585 1881 2143 2376 2402 2502 2577 2760 2795 2760 2711 2599 2326 2460 2396 2053 1979 2082 2251 2147 1845 1851 2285 2261 2235 2009 2077 2061 1927 1764 1731 1895 1932 1751 1696 1528 1854 2117 2293 2424 2266 2393 2509 2338 2730 2730 2710 2704 2586 2219 2343 2203 2120 2274 2447 2434 2490 2606 2528 2524 2759 2577 2371 2039 1592 1672 1734 1708 1895 2048 1814 2004 2222 2157 2181 2106 2045 1895 1942 1910 1915 2078 1936 1970 1944
1594 1803 2063 2319 2276 2375 2590 2494 2432 2512 2550 2369 2303 2298 2344 2179 2230 2127 2148 2011 2038 2180 2280 2256 2320 2463 2212 2289 1876 1760 1701 1951 1920 1546 1543 1630 1983 2120 2286 2295 2258 2376 2472 2344 2758 2535 2728 2675 2637 2627 2428 2128 1689 2134 2242 2345 2476 2382 2509 2684 2788 2672 2545 2156 1624 1736 1916 2355 2073 1796 1925 2050 2219 2246 2196 2108 2057 2076 2108 1906 1907 1982 1924 1993 2101
1476 1732 2157 2224 2254 2343 2357 2276 2153 2370 2114 2275 2317 2295 2345 2238 2019 2032 1855 1968 2341 2277 2200 2212 2355 2403 2290 2075 1940 2082 1767 1736 1594 1789 1762 2000 2126 2192 2340 2433 2472 2221 2478 2877 2610 2452 2483 2552 2763 2854 2633 2114 2036 2436 2627 2680 2491 2430 2488 2447 2704 2828 2657 2290 1748 1896 2240 2448 1984 2517 2095 2119 2219 2259 2163 2018 2109 2105 2029 2002 2035 2008 2113 2126 2014
1464 1952 2148 2203 2230 2245 2178 2152 2125 2126 2134 1952 1799 2040 2092 1932 1907 2073 2193 2268 2235 2347 2260 2243 2287 2364 2149 1857 2119 2344 2016 2096 1470 1740 1889 1950 1947 2111 2280 2270 2587 1988 2235 2561 2332 2393 2382 2548 2838 2789 2460 2443 2158 2442 2553 2418 2118 2090 2000 2394 2538 2732 2749 2264 1923 2148 2385 2036 2121 2125 2171 2431 2304 2170 2130 2134 2144 2112 2030 2046 2067 2074 2042 1838 1782
1691 2005 2110 2177 2184 2124 2140 2105 2071 2015 2040 2015 1784 1949 1608 1789 1744 2015 2116 2300 2255 2297 2352 2416 2387 2413 2012 2046 2067 2485 2311 2099 2038 1727 1838 2202 2093 1888 2236 2279 2366 2353 2378 2300 2540 2474 2451 2603 2776 2484 2564 2712 2322 2498 2732 2660 2434 1966 2016 2285 2532 2883 2022 1817 2000 2092 2075 2232 2277 2260 2418 2268 2267 2203 2174 2215 2134 2184 2111 2048 1925 1987 1927 1892 1850
1734 1930 2020 2080 2043 2034 2059 2011 1931 1910 1968 1960 1836 1685 1602 1639 1793 1792 1938 2293 2399 2341 2429 2238 2434 2429 2262 2288 2576 1814 1767 1930 2091 1948 2085 2010 1780 1914 2256 2355 2396 2391 2446 2423 2527 2684 2693 2778 2730 2664 2366 2673 2659 2751 2596 2196 2246 2264 2519 2542 2933 1713 1645 1804 1958 2148 2232 2514 2528 2315 2546 2278 2307 2302 2145 2154 2066 2170 2018 1919 1955 1926 1947 1868 1839
1520 1692 1902 1903 1895 1954 1984 1914 1868 1860 1851 1762 1704 1802 1891 1903 1675 1991 2201 2250 2204 2220 2423 2262 2278 2261 2418 2140 2008 2313 2088 2329 2536 2667 2779 2724 2126 1927 2062 2467 2483 2520 2533 2484 2638 2767 2843 2762 2714 2422 2622 2251 2628 2468 2539 2499 2353 2113 2348 2872 1813 1540 1590 1761 1928 2167 2314 2199 2515 2473 2350 2316 2321 2189 2133 2132 2103 2015 1952 2086 2042 1807 1802 1848 1757
1202 1414 1682 1714 1839 1905 1901 1860 1814 1790 1746 1678 1896 2219 1738 1724 1823 2004 2117 2288 2234 2490 2192 2148 2162 1934 2118 1960 1990 1919 2034 2032 2374 2502 2804 2451 2443 2170 2206 2418 2466 2592 2542 2675 2788 2987 2912 2894 2647 2768 2428 2785 2535 2522 2608 2543 2280 2660 2694 1873 1513 1523 1620 1695 1890 2088 2124 2219 2204 2592 2404 2478 2304 2119 2052 2021 1958 2025 2232 2087 1896 1791 1764 1745 1720
919 1111 1398 1615 1796 1808 1841 1790 1761 1689 1585 1665 1794 1709 1693 1733 1805 1786 1748 1742 1943 1840 1857 1950 1883 1936 1911 1895 1874 1980 1954 1984 2136 2744 2616 2036 2269 2212 2819 2822 2891 2848 2746 3133 2835 2886 2886 2667 2394 3289 2979 2216 1959 2359 2693 2636 2320 1968 1559 1442 1516 1593 1588 1617 1774 1931 2058 2428 2303 2630 2502 2448 2352 2116 2034 2042 2227 2302 2200 1982 1893 2008 2095 1836 1623
716 884 1234 1568 1675 1727 1750 1733 1679 1571 1501 1796 1699 1646 1676 1733 1781 1698 1708 1813 1762 1602 1708 1766 1842 1907 1886 1837 1818 1873 2085 2115 2056 1972 1978 2202 2393 2385 2343 2458 2687 2905 2854 2630 2883 2942 2760 2918 3202 2748 2177 2051 1977 2029 2262 2497 1970 1408 1581 1554 1593 1593 1570 1559 1622 1836 2019 2269 2385 2573 2594 2434 2339 2321 2392 2414 2434 2479 2352 1996 2035 2086 2071 1964 1989
598 803 1202 1458 1468 1612 1707 1674 1616 1478 1463 1631 1640 1879 1662 1712 1776 1740 1755 1824 1700 1700 1819 1806 1848 1908 1955 1931 1757 1893 1963 1895 1874 1960 2064 2107 2161 2205 2290 2338 2353 2434 2469 2407 2413 2269 2226 2344 2530 2269 1843 1964 1968 2047 2212 2168 1885 1506 1715 1605 1613 1597 1545 1502 1590 1736 2026 2110 2692 2686 2658 2578 2420 2302 2401 2425 2331 2402 2433 2214 2257 2075 2095 2033 1908
532 694 1132 1277 1307 1540 1660 1610 1591 1423 1499 1588 1604 1763 1529 1626 1694 1733 1771 1708 1637 1741 1899 1850 1835 2000 1984 2062 1656 1762 1813 1853 1849 1876 1982 2012 2027 2208 2443 2620 2535 2160 2017 1913 1811 2319 1643 1705 1697 1683 1569 1728 1813 1780 1903 2051 1702 1906 1690 1662 1622 1589 1532 1499 1588 1770 1986 2080 2769 2792 2596 2586 2549 2392 2460 2482 2483 2418 2315 2284 2332 2070 2099 2122 2204
510 639 941 1124 1146 1464 1619 1572 1559 1396 1529 1534 1583 1518 1418 1493 1593 2259 1898 1989 1859 1761 1961 1936 1841 1983 2141 2135 1787 1752 1802 1800 1866 2107 2166 2200 2296 2404 2515 2577 2658 2563 2234 1731 2069 2469 2402 2098 2174 1944 2098 2053 2080 2039 1931 1868 1858 1727 1521 1705 1656 1643 1539 1501 1530 1748 1929 2140 2437 2823 2723 2621 2493 2443 2430 2353 2514 2406 2320 2270 2267 2105 2187 1878 2092
526 618 817 918 1051 1377 1538 1545 1541 1463 1500 1462 1622 1424 1369 1439 1893 1938 1704 2400 1851 1849 2003 2019 1814 2060 2110 2125 2074 1750 1814 1865 1977 2194 2177 2221 2245 2277 2410 2462 2443 2496 2432 2300 2316 2409 2454 2347 2365 2432 2552 2506 2446 2404 2293 2259 2086 1753 1704 1563 1626 1614 1596 1507 1460 1548 1831 2061 2295 2591 2686 2580 2516 2440 2233 2046 2223 2215 2212 2246 2079 1883 2078 2017 2124
598 681 733 852 1019 1257 1443 1484 1473 1481 1445 1536 1616 1418 1430 1560 1806 1811 1665 2550 1999 1986 2067 2038 1869 1923 2054 1925 2001 1682 1778 1860 2014 2151 2182 2133 2046 2042 2156 2224 2192 2294 2176 2295 2251 2392 2288 2259 2188 2212 2253 2276 2230 2244 2656 2460 2280 1913 1589 1412 1518 1544 1612 1532 1388 1327 1488 1801 2072 2330 2761 2545 2603 2492 2326 2182 2047 1841 2054 2053 1986 2134 2066 2066 2206
802 807 856 904 1126 1205 1316 1340 1451 1803 1482 1571 1619 1485 1498 1653 1780 1697 1819 2122 2150 2106 2098 2120 2081 1780 1917 1987 1791 1986 1699 1788 1974 2103 2104 2080 1876 1757 1989 2371 2181 2029 2248 1895 2130 2112 2161 2307 2305 2167 2086 2024 2088 2067 2212 2297 2193 1827 1489 1394 1371 1422 1558 1521 1341 1199 1232 1500 1802 2021 2444 2761 2664 2520 2414 2334 2314 2231 2186 2176 2326 2304 2259 2165 2184
898 893 921 957 1177 1166 1203 1304 1501 1784 1608 1582 1716 1551 1530 1634 1744 1648 1834 2143 2143 2115 2100 2112 2135 2050 1720 1885 1847 1740 1938 1661 1892 2010 2017 1921 1670 1582 2071 2268 2253 1960 2162 1987 1994 2175 2170 2076 2076 2142 2048 2126 2447 2242 1848 1573 1408 1097 968 1185 1258 1279 1417 1418 1300 1176 1193 1330 1532 1841 2002 2402 2674 2635 2558 2542 2453 2365 2322 2342 2322 2305 2344 2298 2317
963 957 951 1033 1190 1166 1174 1338 1586 1862 1573 1589 1660 1601 1556 1573 1615 1592 1798 2148 2032 2074 2020 1998 1997 1920 1561 1670 1758 1635 1973 1570 1749 1852 2097 1656 1411 1586 1947 2116 1894 1626 1750 1692 1610 1794 1868 2227 2119 2259 2530 2680 2436 1487 1056 823 866 878 872 884 1093 1090 1248 1334 1267 1230 1203 1254 1357 1589 1755 2139 2290 2702 2670 2677 2648 2567 2518 2459 2517 2455 2527 2541 2559
1044 1035 967 1034 1190 1136 1275 1340 1587 1711 1593 1602 1633 1589 1575 1547 1502 1389 1866 2044 1892 1887 1860 1894 1684 1535 1329 1368 1539 1552 1614 1415 1563 1648 1562 1297 1243 1493 1704 1715 1647 1741 1503 1610 1746 2159 2244 2477 2626 2514 2510 2617 1160 1524 852 858 882 893 860 829 886 885 1116 1219 1178 1191 1184 1183 1284 1415 1606 1908 2084 2195 2436 2956 2864 2807 2831 2774 2751 2739 2746 2725 2714
1040 1134 1074 1014 1259 1129 1322 1352 1725 1622 1790 1642 1664 1604 1567 1524 1370 1246 1706 1879 1771 1685 1628 1596 1372 1182 1180 1002 1140 1556 1368 1260 1318 1418 1376 1031 1103 1232 1316 1339 1420 1648 1372 1949 2144 2154 2129 2491 2806 2691 1788 1212 1097 2228 1013 862 862 923 925 877 851 832 1015 1042 1072 1042 1050 1117 1244 1361 1465 1650 1910 1996 2122 2288 2733 2814 2944 3000 3072 3092 3075 3064 3078
936 1040 1063 996 1149 1160 1570 1369 1651 1514 1585 1601 1569 1489 1364 1323 1155 1305 1485 1561 1512 1390 1313 1231 988 980 1047 851 865 1470 1156 1119 1224 1270 1111 987 952 913 976 1052 1274 1688 1946 1918 2146 2351 2750 2526 2661 2702 2140 1324 1497 949 1261 1175 982 868 928 951 932 909 890 907 978 951 1018 1072 1146 1259 1311 1449 1630 1803 2290 2054 2072 2168 2674 3027 3162 3202 3235 3221 3245
797 847 828 908 1080 1125 1706 1377 1480 1428 1436 1366 1308 1124 901 1287 1153 1311 1148 1177 1147 1085 1100 1156 1006 906 932 812 756 1376 949 956 1165 1152 973 925 1046 1010 946 1106 1587 1806 1794 2209 2516 2862 3098 2853 2701 3351 2562 1602 1600 1244 862 835 1081 886 908 943 956 967 934 885 924 939 998 1062 1048 1034 1065 1157 1458 2421 2188 2200 2094 1877 1940 2593 2978 3307 3383 3348 3367
710 730 763 886 989 1067 1342 1339 1378 1330 1288 1172 997 788 660 1168 1278 1307 1163 978 809 906 1025 1052 972 896 771 784 717 1319 959 850 1104 1028 836 815 950 1016 1079 1298 1550 1846 2278 2467 2696 3156 2594 3003 2575 2183 2831 2226 1782 1344 1284 1215 1134 867 969 944 910 936 1009 1016 1004 1611 1005 1083 1106 998 932 962 1127 1309 1728 1906 1926 1884 1772 1907 2524 3075 3356 3433 3545
808 806 827 860 903 1039 1209 1451 1224 1218 1185 1041 744 620 650 979 1213 1363 1082 862 854 829 907 954 1033 940 616 630 752 1185 1224 809 1040 1135 834 1094 1300 1053 1227 1472 1997 2215 2341 2771 3114 2691 2830 2123 2217 2197 2175 2908 2625 2252 2345 1736 1106 904 1016 1022 1065 1098 1109 1095 1074 1296 1122 1084 1097 1263 1058 1126 1081 1164 1391 1657 1779 1764 1724 1626 1492 1420 1605 2540 3375
815 841 849 796 864 1030 1154 1293 1125 1132 1098 1013 838 634 604 812 1026 1202 1058 924 977 968 984 1069 1067 822 599 586 866 962 1111 972 923 941 1050 1302 1220 1387 1765 2152 2410 2831 2918 3026 2651 2266 1846 1782 1841 3128 3205 2026 3669 3650 2327 1626 870 934 1201 929 1003 1117 1092 1018 992 945 1117 1120 1247 1771 1775 1598 1500 1433 1560 1713 1786 1797 1722 1610 1768 1388 1449 1672 2401
582 624 674 710 863 1015 1102 1190 1042 1013 966 975 898 537 579 714 850 986 908 931 1046 1149 1171 1258 1298 947 724 643 944 947 1064 1176 1188 889 952 1820 1906 1810 2085 2371 2786 3097 2898 2459 2324 2916 3092 2846 2970 2578 4172 2072 2062 2490 1138 1008 832 810 838 892 938 973 2414 1664 913 818 862 1016 1188 1374 1686 1816 1839 1834 1862 1963 2072 2062 1982 1865 1722 1530 1512 1571 1616
479 476 575 723 882 1011 1049 1045 962 1010 958 924 858 736 782 840 881 920 815 973 1073 1221 1268 1387 1469 1356 928 856 1050 1159 1162 1238 1631 988 1166 1387 2070 2208 2192 2458 2764 2664 2245 2778 3317 4593 3258 2804 2141 1999 2269 2265 2156 2121 1208 732 794 814 830 668 545 539 1074 1316 1218 1101 975 936 959 1114 1219 1435 1535 1583 1731 2040 2245 2329 2326 2255 2101 1941 1796 1637 1618
409 398 575 703 882 1022 1038 989 948 1047 1061 973 887 841 882 877 856 895 838 926 1033 1180 1316 1470 1832 1687 1373 1268 1395 1447 1294 1588 1986 1702 1471 1719 2186 2469 2573 2691 2697 2957 2830 1983 2291 2628 2747 2605 2654 2483 2404 2493 3066 2686 1188 988 872 943 963 587 538 449 634 494 497 587 711 788 836 858 882 962 1088 1154 1182 1479 1893 2219 2385 2390 2321 2186 2069 1913 1642
18 45 485 649 830 973 1014 998 1004 1098 1130 1115 1104 1041 829 637 851 890 872 818 958 1294 1547 1857 2170 2056 1744 1707 1655 1805 1733 2113 2505 2442 2470 2627 2706 2784 2742 2883 2757 2956 2614 2072 2321 2520 2552 2598 2626 3621 2698 2339 1993 1508 3002 1266 1225 960 620 710 701 514 484 606 762 773 457 514 546 658 702 745 810 829 816 838 1070 1625 2010 2216 2272 2232 2152 2016 1701
16 35 349 594 747 921 972 1052 1124 1158 1108 1100 1043 876 1385 837 1341 1265 1251 1308 1585 1629 1840 2087 2317 2435 2241 2204 2064 2137 2242 2596 2735 2725 3039 3090 3066 2733 2831 2886 3046 3442 3342 2772 2498 2403 2691 2739 2719 2796 2636 2307 2081 2323 2104 2057 1288 1202 764 561 613 604 810 961 839 733 628 739 608 587 654 678 597 577 685 727 711 905 1461 1819 2019 2103 2098 2048 1959
23 30 180 532 696 846 951 1018 1057 1081 969 902 767 900 1172 859 1234 1134 1078 1308 1588 1699 1842 2051 2340 2633 2613 2360 2366 2490 2681 2821 2805 2850 3137 3213 3075 2753 2791 2941 3228 3419 3227 2901 2918 3055 2945 2777 2548 2761 2578 3078 2124 1808 1452 1966 2394 2853 1930 1139 1001 1061 1039 1150 905 903 822 991 889 912 585 629 493 586 690 711 779 762 1181 1445 1617 1714 1774 1826 1927
23 23 156 454 623 759 908 982 966 875 815 828 676 1017 1035 813 1121 1162 1009 1314 1781 1836 1876 2059 2255 2515 2550 2533 2519 2680 2866 2939 2758 2768 2965 3084 3000 2981 2940 2749 2974 3150 4144 3202 2923 3040 3076 3008 2688 2706 2668 3454 2435 1967 2241 2244 1292 2110 2760 2449 1585 1891 1565 1098 1113 1631 726 673 100 227 504 478 447 463 504 680 608 746 820 1005 1312 1404 1394 1667 1622
17 25 154 252 566 707 877 914 864 862 802 921 742 845 970 930 969 1174 1135 997 1341 1852 1990 2103 2196 2382 2457 2525 2464 2665 2795 2930 2794 2591 2782 2970 2808 2850 2832 3003 2964 3085 3452 3489 2921 2835 2814 2613 2937 2751 3394 2920 2080 1841 2053 2635 1537 1872 2770 2048 2225 2180 1348 1488 1100 822 920 730 675 512 212 276 469 544 653 635 604 563 630 798 789 988 1230 1706 1808
8 30 124 207 442 671 848 876 845 872 885 1058 868 858 1005 1024 963 1098 1262 1104 1010 1203 1719 1995 2054 2258 2398 2508 2508 2526 2676 2764 2792 2698 2592 2878 3422 2769 2670 2856 3012 2978 4033 3452 3191 2843 2618 2476 3102 3109 3016 2896 2539 2156 2099 2352 2361 2511 2379 2392 2091 1441 1181 984 1047 1205 863 641 772 1041 840 314 303 693 693 696 666 625 670 735 834 1209 1194 1284 1756
6 32 77 173 360 629 806 835 843 863 881 1064 1147 906 1053 1128 1041 1026 1221 1237 1370 1240 1462 1819 1978 2120 2249 2446 2540 2512 2509 2608 2591 2558 2534 2838 3101 3154 2830 2772 2869 2973 3336 3295 3238 2871 2826 2754 2862 2813 2785 3032 3564 2869 3682 3620 3258 3139 2642 2661 2261 1891 1443 1399 1581 1481 997 1011 800 975 1120 590 464 665 688 670 700 843 704 692 765 1000 1298 1112 1350
0 11 70 169 382 658 780 830 864 841 829 939 1214 1079 1057 1117 1094 1062 1128 1228 1302 1281 1438 1638 1877 1957 2020 2147 2269 2325 2289 2364 2484 2536 2527 2727 2899 3139 3100 2907 2932 3082 3293 2855 2865 2721 2767 2880 3035 2935 3105 2756 3163 3143 3274 2930 2766 2727 2816 2702 2392 1872 1604 1589 1690 1582 1282 900 734 805 1018 1274 879 562 676 702 799 776 752 793 756 738 964 1122 1290
Wind_Speed
11 10 12 12 8 7 7 2 2 4 5 6 6 6 6 6 5 4 3 3 4 5 6 5 4 3 3 4 3 3 4 5 4 4 5 6 7 9 10 11 13 13 13 14 12 10 10 9 9 10 8 6 6 5 4 2 2 2 3 5 4 3 4 2 2 3 3 5 5 6 8 8 7 4 3 1 1 2 2 2 5 8 11 6 4
10 11 11 12 7 5 6 3 2 2 3 4 4 3 3 2 2 1 2 3 5 6 7 7 6 5 5 6 6 5 4 3 4 4 4 6 7 9 10 11 12 12 12 13 13 10 9 11 11 9 6 6 6 3 2 2 4 3 5 6 3 3 3 3 3 1 3 4 5 5 6 4 4 5 3 1 1 1 2 3 4 11 12 5 5
8 10 11 11 7 7 5 3 1 1 2 2 2 1 1 1 1 1 2 3 5 6 7 8 8 7 6 6 6 5 4 3 3 4 5 6 7 7 9 10 10 10 10 11 14 11 10 11 12 9 5 7 5 2 2 3 5 7 8 5 3 3 3 3 4 4 2 2 5 4 2 1 3 1 1 1 1 2 2 3 3 5 8 4 6
8 11 11 10 8 8 6 3 2 2 2 2 2 2 2 2 2 2 3 3 4 5 6 7 7 6 5 5 5 4 3 2 3 4 5 5 6 6 7 8 8 8 9 9 9 12 12 11 10 9 7 5 5 4 1 3 8 10 7 4 3 3 5 5 3 4 2 3 4 1 8 11 7 1 2 2 2 3 3 4 4 5 5 4 4
8 10 11 11 10 11 8 5 3 3 4 4 4 4 3 3 3 3 3 3 4 5 6 7 7 6 5 4 3 1 1 3 3 4 6 6 6 5 6 7 8 8 9 9 8 10 14 11 10 10 7 3 4 3 2 8 10 8 5 4 4 5 3 4 4 3 4 4 4 6 10 10 11 3 2 3 3 3 4 4 4 4 5 6 7
9 11 12 12 12 13 10 6 5 5 5 5 5 5 4 4 4 4 4 3 4 4 4 6 6 6 5 3 1 1 3 4 4 4 4 6 7 7 6 5 7 8 9 9 8 11 12 9 11 10 6 6 3 1 8 9 8 6 4 3 2 2 2 3 1 4 5 4 7 11 11 11 12 8 3 3 4 3 3 3 3 2 2 3 3
7 12 12 12 13 13 12 8 6 6 7 6 6 6 5 5 5 5 5 4 4 4 4 4 5 5 3 2 0 2 6 7 6 4 4 5 7 7 7 5 6 9 9 8 6 9 11 9 11 9 7 6 4 4 6 7 5 5 5 3 2 1 3 4 4 5 5 7 10 12 12 12 12 12 4 4 4 4 4 5 6 5 5 4 3
9 12 13 13 14 13 12 9 8 8 8 8 7 6 6 7 6 6 5 5 4 3 3 4 4 3 2 0 2 5 8 9 4 4 5 5 6 7 7 5 6 8 7 8 7 7 9 10 7 6 7 9 8 7 3 5 6 5 3 2 1 2 3 4 3 3 4 9 11 12 11 11 11 12 5 4 4 3 3 4 4 4 3 3 2
9 11 13 13 15 11 11 10 9 9 9 9 7 7 7 7 6 5 4 3 3 3 3 3 3 2 2 2 4 7 10 5 3 2 2 3 4 6 4 5 5 4 6 7 6 4 7 9 8 5 6 8 7 7 3 3 4 4 3 2 1 2 2 3 4 4 8 10 11 11 11 11 11 12 7 4 4 4 4 3 3 3 3 2 2
8 11 12 14 15 11 11 10 10 10 9 9 8 8 7 7 6 5 3 2 2 3 3 3 4 4 4 4 6 9 5 4 3 3 3 3 4 5 4 4 5 3 5 7 5 4 6 7 6 5 6 5 5 5 2 2 1 2 2 1 0 1 2 2 4 7 10 11 12 12 10 9 12 11 8 6 4 4 3 4 5 5 5 3 2
7 10 12 12 13 11 11 10 9 9 9 7 7 7 7 6 6 4 3 2 2 4 5 6 5 6 6 5 7 9 4 9 7 5 4 3 5 5 5 3 3 3 4 5 6 5 6 7 5 3 3 2 4 3 2 1 1 3 2 2 1 0 1 3 8 12 13 12 12 12 9 8 12 12 5 3 5 4 4 3 2 3 3 3 3
7 9 11 12 11 11 10 9 9 9 6 6 7 7 6 6 6 4 3 4 4 6 6 7 7 6 4 5 8 7 4 11 9 7 6 7 7 5 5 3 3 4 4 4 5 5 5 6 4 1 1 2 1 1 2 1 1 3 2 2 2 1 2 4 11 13 13 13 11 11 12 12 12 9 4 2 5 5 3 3 3 4 4 4 4
6 8 10 11 12 11 9 9 9 6 7 7 7 7 6 5 5 6 6 5 6 7 7 8 8 7 7 5 8 9 8 13 10 6 9 10 8 8 8 7 5 4 3 3 4 4 4 4 3 1 3 2 1 1 1 0 2 3 3 3 3 2 3 5 12 13 13 12 11 12 13 13 11 6 5 5 6 4 5 5 6 6 5 5 4
6 8 10 11 12 9 8 9 8 8 8 7 6 6 5 5 7 5 8 8 9 7 8 8 7 7 6 3 4 10 8 12 13 7 8 9 9 10 9 8 8 6 3 4 3 3 3 3 2 3 4 4 3 4 4 5 4 5 4 4 4 3 3 7 10 13 12 11 12 12 13 13 12 8 8 7 7 7 7 7 7 7 6 6 4
5 7 8 10 11 11 8 8 8 8 8 6 6 5 4 6 9 7 8 12 9 8 8 9 8 8 7 7 6 11 11 12 13 9 8 9 10 10 9 9 7 6 4 4 2 1 2 2 3 4 4 5 4 4 5 6 6 6 5 5 5 4 4 12 12 13 12 12 13 13 14 15 10 9 9 8 9 9 9 8 8 7 6 5 4
4 6 8 10 11 11 10 9 8 8 7 6 4 5 6 8 10 9 10 14 10 8 8 9 9 9 10 9 9 11 14 12 11 11 11 12 12 11 9 9 7 7 6 5 3 1 2 4 5 6 8 7 5 5 6 7 7 6 5 5 5 5 5 9 12 13 12 12 13 14 15 15 11 11 10 10 11 11 10 9 8 7 6 4 4
4 7 8 10 9 11 11 11 9 8 6 5 4 8 8 9 11 9 12 16 9 8 9 9 9 9 8 8 7 13 17 19 14 11 13 14 13 11 11 9 9 9 8 6 4 3 3 5 6 8 11 8 5 6 7 8 8 6 5 5 5 5 6 7 11 13 13 14 15 16 17 18 14 13 12 12 12 12 11 10 8 7 6 5 5
5 7 9 10 10 11 12 11 9 11 10 7 6 8 9 10 11 11 15 13 9 8 8 8 9 9 8 7 7 9 15 19 21 17 17 16 13 12 10 9 11 11 8 7 6 4 4 5 7 9 11 8 5 6 8 9 8 7 6 7 6 6 7 7 12 14 15 14 17 18 20 15 14 14 13 13 13 12 11 10 8 7 6 6 6
7 8 9 10 10 11 12 10 11 10 10 9 11 10 10 11 11 15 14 10 9 8 8 9 10 10 9 4 6 7 9 12 18 19 18 16 14 12 11 11 14 11 9 8 6 6 6 6 7 9 9 8 6 6 8 9 8 8 7 7 7 7 6 10 14 15 16 17 19 20 21 16 17 15 14 14 13 12 11 9 7 7 7 6 6
8 9 9 11 12 12 12 11 11 11 11 11 11 10 10 11 12 16 13 9 8 8 7 8 10 10 7 6 5 6 7 10 9 14 17 17 16 14 11 12 13 10 9 8 7 6 7 7 7 7 8 9 7 7 8 9 10 10 8 7 8 7 12 14 15 16 17 19 20 23 21 18 17 16 15 14 13 12 10 8 7 7 7 7 7
9 10 11 11 11 11 12 11 12 11 11 11 12 11 9 12 15 14 11 8 7 6 7 6 8 8 6 4 6 8 10 12 11 10 17 19 19 17 14 12 12 9 7 8 7 7 8 9 8 6 8 7 8 10 10 11 12 11 9 9 8 13 14 15 16 17 20 22 22 24 22 19 18 16 15 14 12 11 9 8 8 8 8 9 8
9 10 12 11 10 11 12 12 12 12 12 11 12 12 12 14 12 13 11 9 7 6 8 9 9 9 6 8 9 10 11 11 10 11 12 14 14 14 9 9 8 8 7 7 8 9 11 11 9 7 8 8 9 15 14 11 10 11 11 9 14 16 16 16 18 20 21 23 24 25 20 19 18 16 15 13 12 10 9 9 9 10 10 10 10
9 10 12 12 11 11 12 12 12 12 11 12 12 11 12 13 12 11 10 8 8 8 9 9 9 9 10 11 10 10 11 11 12 11 13 12 12 9 8 7 6 6 7 9 11 12 12 12 10 9 9 10 15 15 16 17 15 12 12 15 16 18 18 19 20 21 22 24 24 23 21 19 18 16 14 13 12 10 10 10 11 11 11 11 11
9 11 11 11 11 12 12 12 12 12 11 11 11 11 11 12 12 11 10 10 10 9 9 9 9 9 10 11 10 10 10 11 8 7 9 12 11 7 4 6 6 7 9 14 13 12 12 11 9 10 14 16 16 16 16 16 15 16 17 18 19 19 19 21 21 21 22 24 24 23 21 19 16 15 14 13 11 11 11 13 13 13 13 14 14
9 9 10 11 11 11 11 11 11 12 12 12 11 11 11 11 11 11 11 11 10 9 9 9 9 9 10 9 9 10 10 11 11 10 10 12 12 12 13 15 15 15 14 16 18 17 15 15 15 14 15 16 16 17 17 17 18 18 19 20 20 21 21 21 21 21 22 24 25 21 20 18 16 15 14 12 12 12 13 14 15 15 15 15 16
8 9 10 10 10 10 10 10 11 12 13 12 12 12 11 11 11 11 10 10 9 9 9 9 9 9 9 9 9 10 11 11 11 10 11 12 12 12 13 15 16 16 16 15 16 15 15 15 14 15 16 16 17 18 19 20 20 20 21 21 21 21 21 21 22 21 22 24 24 20 19 17 16 16 15 13 13 14 14 16 17 17 17 17 17
9 9 9 9 9 9 9 9 10 12 12 13 13 12 12 12 12 11 9 9 9 9 9 9 8 8 9 9 8 10 10 10 11 11 11 13 14 14 14 15 16 17 17 15 16 16 15 15 15 16 17 18 20 21 21 22 22 21 22 22 22 21 22 22 22 22 23 23 23 19 19 17 17 16 15 14 15 16 17 17 18 19 18 19 18
8 8 9 9 9 9 8 8 9 11 12 13 12 12 13 13 13 12 10 11 10 10 11 10 9 9 11 10 11 11 10 9 10 11 13 14 15 15 15 16 17 17 17 16 16 17 16 16 16 18 19 21 23 24 25 24 23 22 21 23 23 22 22 22 22 23 23 22 22 19 18 18 17 17 17 17 18 18 19 19 19 20 21 21 20
8 9 9 9 10 8 8 8 9 10 12 12 12 12 12 12 13 12 12 13 12 13 13 12 10 11 11 11 12 11 10 9 11 12 13 14 16 16 16 17 18 18 17 17 16 18 18 18 19 21 23 25 26 27 26 26 24 22 21 22 23 22 22 22 22 22 22 21 20 19 18 18 18 18 18 19 19 20 20 21 21 22 22 22 23
10 9 9 10 9 7 9 9 8 9 11 12 12 12 14 13 13 13 14 13 13 13 13 13 12 11 11 12 12 12 12 11 12 13 13 15 16 16 16 18 19 19 18 18 18 18 19 21 23 25 27 28 29 28 25 26 24 24 22 22 23 22 21 21 22 22 21 20 19 18 18 18 19 19 20 21 21 21 21 23 22 23 23 24 24
8 9 9 9 8 8 9 8 7 8 9 11 12 13 13 14 13 13 14 13 13 12 12 12 11 12 12 12 11 13 13 13 13 13 14 15 16 16 18 19 19 20 19 19 19 21 22 24 26 28 30 30 30 29 25 24 24 23 23 21 22 21 21 21 21 21 19 19 17 17 17 20 21 21 21 22 22 23 24 24 24 24 24 25 25
10 9 8 8 8 9 9 7 6 7 8 9 11 11 12 13 13 12 13 13 12 11 12 12 12 11 12 12 12 13 14 14 13 14 15 16 17 17 19 20 21 20 20 20 22 23 25 27 28 29 30 29 30 28 24 22 22 22 21 21 19 20 20 20 20 19 18 16 16 16 17 18 22 22 22 23 23 24 25 25 25 25 25 26 26
10 8 7 7 9 9 8 7 5 6 6 7 10 10 10 11 12 13 13 13 13 11 12 12 11 11 12 12 12 13 14 14 14 14 16 17 17 18 19 21 21 21 21 22 24 25 26 27 29 28 29 28 27 26 21 20 20 20 19 19 17 19 19 18 19 17 16 15 15 16 17 18 18 22 23 23 24 25 26 26 26 26 26 26 26
8 7 6 7 7 8 7 6 5 6 6 6 7 8 9 10 11 12 12 13 13 12 12 11 11 11 12 12 13 14 14 15 15 15 15 17 18 19 20 22 22 22 22 22 25 25 26 27 28 26 26 24 23 23 20 19 19 18 18 17 16 17 17 18 18 16 14 14 13 15 18 18 18 18 18 23 25 26 27 27 27 27 27 27 26
7 7 7 7 7 7 7 6 6 6 5 5 6 7 7 9 10 12 13 13 13 12 11 11 11 12 12 13 13 14 13 16 16 14 16 17 19 21 21 22 23 22 23 23 24 25 24 26 25 24 23 21 21 20 18 17 16 16 17 16 16 16 15 17 16 14 13 13 12 15 17 18 18 18 19 19 22 26 27 28 28 28 27 27 26
6 6 6 5 7 7 7 7 6 5 6 6 6 5 6 8 10 12 12 13 13 13 12 12 12 12 13 13 14 14 14 17 17 15 15 17 19 20 21 22 23 22 23 24 23 25 24 24 22 20 21 21 19 19 17 17 16 15 14 14 14 14 15 15 15 13 12 11 13 14 16 17 18 19 19 19 21 21 26 28 28 28 27 27 26
4 4 5 5 6 6 8 7 6 6 5 6 5 5 5 7 9 11 11 12 13 14 14 13 12 13 14 14 14 15 14 16 17 16 16 18 18 19 20 21 20 20 22 23 24 24 23 23 23 20 17 18 18 18 17 15 15 15 13 11 12 13 14 14 14 12 10 11 12 13 15 17 18 20 19 19 20 21 23 27 27 27 27 27 26
4 3 5 5 5 5 7 7 7 7 6 6 6 5 5 6 9 10 10 11 13 13 13 13 13 13 14 14 14 14 14 15 16 16 18 18 18 18 19 20 18 19 20 21 23 22 20 19 21 19 17 17 18 18 17 16 14 13 12 9 10 11 14 13 12 10 10 11 12 13 15 16 18 20 19 19 20 20 20 22 25 25 26 26 25
5 3 4 5 5 5 7 7 6 8 7 7 7 7 6 8 10 10 9 10 12 12 12 13 13 13 14 14 13 13 13 15 15 16 17 19 18 19 20 19 18 18 18 19 20 20 18 18 17 19 18 16 17 17 16 15 14 13 12 10 9 12 12 11 9 9 10 11 11 12 14 17 17 18 19 19 19 19 19 19 18 17 18 22 23
4 4 3 5 6 6 8 7 6 7 8 8 7 8 7 6 7 11 11 10 11 11 11 12 12 13 14 13 13 13 13 13 15 15 16 17 18 19 20 20 19 17 17 17 18 17 17 18 18 17 18 17 14 15 14 13 12 12 12 13 10 9 10 9 8 9 8 10 12 11 14 15 16 18 19 19 19 19 18 17 17 17 16 18 21
5 4 3 4 5 5 6 7 7 7 7 7 7 7 7 6 8 7 8 8 9 10 9 10 11 13 13 13 12 12 13 13 14 15 15 17 16 17 18 20 18 17 16 17 16 16 15 15 16 15 14 15 15 13 12 10 10 12 12 12 13 11 9 7 7 7 8 10 10 12 14 14 16 17 18 18 19 18 17 17 16 15 16 15 16
6 4 2 3 5 5 5 7 9 8 7 7 6 6 7 5 5 6 7 7 7 7 8 8 10 12 12 12 12 12 12 13 14 14 15 15 16 15 16 17 16 15 15 15 15 15 15 14 15 15 13 12 13 14 13 10 10 8 9 12 13 14 12 8 6 7 7 8 10 12 13 13 15 15 15 17 19 18 18 16 14 14 14 14 14
4 3 3 4 6 6 6 7 9 8 8 7 6 6 7 5 4 5 4 6 8 7 6 6 7 8 10 11 12 12 11 13 13 14 14 15 16 16 15 14 14 14 14 15 14 15 13 12 13 13 17 14 12 13 11 8 8 8 7 8 10 11 14 13 9 8 6 7 8 10 11 12 14 13 13 15 18 18 17 15 13 13 13 12 12
nan nan 6 4 7 8 8 8 9 10 9 9 7 6 5 6 5 2 3 3 4 6 7 7 7 7 9 11 12 11 11 12 12 13 14 15 15 16 15 14 15 14 13 14 14 14 14 13 12 12 12 15 15 13 10 7 6 8 11 8 9 8 11 11 11 13 7 6 6 9 8 11 11 10 9 14 17 17 16 14 13 12 12 11 11
nan nan 6 7 8 6 6 6 8 10 10 10 9 9 10 11 11 9 7 9 9 5 6 6 7 7 7 10 11 11 11 11 12 12 13 14 14 14 14 14 14 14 13 13 13 13 13 12 12 12 12 11 13 12 12 10 7 6 4 8 10 11 9 11 12 13 9 6 6 6 7 9 10 10 10 14 14 15 14 13 13 11 11 10 10
nan nan 6 7 8 7 8 8 10 11 11 12 11 11 11 11 10 7 5 4 4 3 3 4 5 6 6 8 9 10 10 11 11 11 12 12 12 12 12 12 12 12 12 12 12 13 15 14 13 12 11 11 10 11 12 12 10 7 5 6 5 8 10 10 9 12 14 7 7 5 6 7 8 8 9 11 13 14 11 12 11 12 11 10 9
nan nan 7 8 9 8 7 7 8 10 11 12 12 12 13 11 7 4 3 1 1 4 4 4 4 6 4 4 7 9 9 9 11 10 10 10 9 9 10 10 10 9 10 10 12 13 13 13 12 12 10 10 11 10 10 11 12 10 8 8 7 8 6 8 10 9 12 12 nan 6 4 5 6 6 8 9 11 12 12 9 10 11 10 9 9
nan nan 7 8 9 8 8 8 9 9 10 11 10 10 9 10 9 8 6 3 1 1 2 2 3 3 3 4 5 8 9 9 9 9 9 9 8 7 7 8 8 8 8 9 10 11 12 11 10 9 10 10 9 9 9 10 7 9 10 9 10 9 8 9 8 10 9 9 12 10 6 3 3 5 6 7 8 9 11 10 10 9 10 9 8
nan nan 6 7 8 8 8 10 9 9 9 9 9 9 9 9 8 8 8 8 6 4 4 3 2 3 3 4 4 6 8 9 9 8 9 8 8 7 7 7 7 8 8 9 9 10 10 10 9 8 9 9 9 9 9 9 8 9 11 11 12 12 11 9 9 10 10 8 8 8 9 8 3 4 4 5 7 5 7 9 9 9 9 9 7
nan nan nan 8 8 9 9 10 10 10 9 9 9 9 9 10 9 9 8 9 10 9 7 5 5 4 3 4 5 5 7 8 9 9 8 8 8 7 7 6 7 7 8 8 9 9 8 8 9 8 9 9 9 8 9 9 9 8 8 7 10 12 13 12 12 12 10 9 7 8 7 6 6 5 2 5 6 5 6 8 9 10 10 8 7
nan nan nan 7 8 8 8 9 9 10 9 8 9 9 11 10 10 10 9 9 9 8 7 7 6 7 5 5 5 6 7 8 8 9 8 8 7 7 7 6 6 7 7 7 7 7 7 6 7 7 7 8 9 10 10 9 8 8 8 8 8 8 9 10 11 11 9 10 11 9 8 5 3 6 3 2 3 5 6 7 9 10 10 8 6
Wind_Direction
94 86 91 81 53 66 93 106 185 201 207 210 211 214 226 237 241 232 221 188 163 166 172 180 192 197 187 171 172 198 216 220 233 250 266 277 281 281 276 274 278 285 282 281 284 286 287 280 278 284 282 287 274 262 261 272 248 247 275 258 248 271 286 274 265 306 356 330 328 329 341 354 7 28 69 82 189 187 148 98 86 85 85 64 358
75 89 94 92 67 75 77 105 170 200 207 202 199 198 213 224 230 209 155 135 136 141 143 148 153 162 162 151 149 163 177 204 224 236 260 266 272 280 281 278 276 279 280 285 285 284 289 283 277 267 277 288 268 265 281 235 250 276 273 261 256 273 282 302 296 318 6 323 334 331 311 6 21 18 18 349 257 163 91 72 75 85 82 21 358
92 97 96 91 69 71 78 86 122 164 184 168 152 139 130 117 125 125 107 111 114 119 125 128 134 144 147 143 142 144 155 188 235 238 245 264 269 272 277 283 281 280 286 292 303 306 295 285 287 282 287 279 270 250 219 266 297 279 263 273 296 289 284 344 340 357 275 297 276 254 261 85 44 3 16 355 355 48 35 48 48 63 66 359 12
85 102 104 90 72 91 93 100 109 134 144 122 115 115 113 120 104 92 82 89 92 97 101 105 110 119 122 121 127 132 149 208 250 264 270 273 281 281 285 287 285 286 292 295 295 294 278 274 270 281 277 268 290 298 351 14 279 264 269 285 295 246 206 212 215 245 264 277 277 219 99 106 115 90 38 13 11 20 23 23 22 23 360 356 350
91 102 109 106 111 110 105 108 116 132 130 122 114 107 103 98 97 90 90 85 86 84 84 87 97 95 95 96 109 145 210 245 264 256 286 299 298 294 294 293 295 298 301 301 295 284 284 279 271 270 262 261 302 344 1 252 254 264 272 288 280 236 214 170 204 196 249 243 213 133 113 111 103 79 53 14 12 10 7 6 5 358 348 355 6
91 103 109 116 118 115 112 110 114 114 109 106 106 103 106 103 88 80 71 61 65 77 88 99 93 96 96 98 96 274 282 277 264 271 297 315 309 307 293 288 297 304 298 284 274 269 263 280 278 269 282 295 300 304 254 252 255 281 299 307 294 313 11 35 253 234 231 222 158 121 119 111 106 101 11 33 6 358 350 330 321 344 334 348 12
91 107 111 114 117 113 115 105 103 104 101 99 92 92 94 85 74 64 57 46 41 39 49 62 72 80 85 87 304 297 282 270 265 281 307 318 309 289 279 285 284 286 281 276 271 280 292 280 280 286 297 301 296 245 268 283 293 300 314 315 297 240 192 176 204 216 201 137 120 118 118 113 109 103 33 17 8 359 342 341 344 348 359 12 12
105 108 110 112 114 102 109 103 100 102 96 89 86 86 79 68 63 58 47 38 32 26 26 40 64 80 83 8 300 273 258 256 263 296 336 311 295 285 290 279 279 280 282 271 255 259 283 283 279 279 297 303 301 288 291 312 319 327 329 328 241 209 199 187 201 201 179 124 121 119 116 111 106 103 65 20 9 353 344 338 343 342 5 21 43
100 107 111 111 108 91 97 97 93 91 92 90 86 80 72 71 67 56 50 34 18 17 26 36 41 47 23 338 303 273 263 280 315 297 337 307 306 297 297 295 285 296 292 277 276 275 273 269 269 274 276 280 279 281 308 321 327 345 13 3 303 233 214 201 178 166 129 119 120 119 111 101 98 92 71 36 18 360 348 15 13 354 17 44 62
102 111 113 114 112 91 88 87 88 87 88 89 92 88 83 77 73 70 64 40 22 14 20 44 36 28 23 349 302 276 286 29 12 335 337 342 322 316 329 326 334 316 298 294 309 307 287 285 283 273 260 264 276 279 305 308 318 4 27 50 16 232 218 187 168 130 115 114 116 111 100 90 92 89 63 30 22 10 18 25 57 60 69 63 90
103 108 113 115 108 86 80 83 84 86 83 86 87 86 90 93 90 88 88 62 41 35 35 42 54 42 32 355 322 300 11 51 31 360 360 7 9 353 351 4 11 332 319 310 325 314 296 280 255 255 265 277 294 305 309 299 13 28 31 34 17 238 215 161 135 118 116 116 114 110 99 107 101 99 59 27 25 38 36 32 49 76 86 108 114
100 105 109 109 87 74 77 77 79 79 82 86 90 90 95 95 102 107 94 67 46 51 50 49 56 62 50 7 316 311 2 74 54 359 16 34 32 6 340 39 45 13 342 329 322 311 295 282 281 233 228 248 271 338 317 331 38 44 27 45 77 96 139 146 124 121 117 117 116 112 109 101 103 91 47 37 77 47 52 80 95 100 113 116 111
92 99 104 106 98 72 72 74 73 69 76 66 70 73 74 81 94 108 98 81 57 50 49 53 59 63 57 29 315 320 11 66 73 24 14 30 32 10 7 9 19 38 6 352 340 320 307 286 286 239 203 190 172 173 96 111 112 83 60 64 72 96 123 143 120 118 115 115 112 110 105 105 100 83 80 64 70 98 103 108 108 115 119 110 107
93 97 103 100 100 69 67 69 69 60 57 61 59 67 73 89 88 83 95 71 63 51 52 59 62 66 71 65 324 330 358 70 72 46 28 31 28 21 16 21 16 11 28 10 345 333 310 279 248 206 186 163 156 139 126 114 93 84 86 83 83 97 124 122 119 111 110 109 106 108 109 108 103 91 84 91 99 107 111 114 117 117 108 100 94
90 93 99 103 103 98 60 63 63 64 66 62 64 75 83 93 86 73 76 79 66 55 51 55 57 64 71 60 7 334 352 44 71 52 40 46 43 35 35 27 23 17 22 32 10 328 259 232 201 184 156 139 130 110 94 99 106 94 88 88 96 110 124 118 113 108 109 109 110 112 113 109 100 100 100 100 105 110 116 118 115 107 98 92 84
93 97 102 108 108 103 100 71 59 62 68 72 87 89 77 77 84 81 76 76 62 57 56 57 56 52 55 45 14 347 351 16 50 62 43 42 42 39 40 39 28 33 36 42 45 104 168 180 179 168 149 123 103 93 101 111 111 105 86 88 94 93 96 110 110 110 111 115 113 114 113 106 101 106 108 109 110 114 117 115 106 97 92 92 78
96 104 107 109 114 113 108 103 90 63 72 78 69 75 72 69 73 73 78 73 61 58 55 52 51 54 55 48 21 357 354 359 10 41 53 40 34 34 33 33 46 42 44 55 74 91 136 157 161 161 143 133 105 106 117 114 109 102 92 82 79 77 76 99 108 110 117 118 119 119 116 114 114 112 113 115 114 114 111 102 98 96 92 81 70
106 109 114 116 118 113 111 111 105 110 110 96 68 66 70 72 66 59 61 64 61 58 54 48 50 50 49 48 30 24 5 356 355 9 32 32 31 28 36 48 52 50 55 67 69 80 100 133 149 151 153 147 138 128 113 107 107 106 92 81 77 64 67 95 113 117 120 124 124 119 118 112 114 113 113 111 110 107 101 98 98 97 89 70 59
115 116 118 116 114 111 116 115 111 111 110 105 101 78 62 65 61 65 67 61 60 53 52 48 48 47 47 43 62 43 29 14 352 356 18 15 28 31 29 55 62 52 57 63 68 83 98 120 138 149 151 144 132 123 115 113 116 107 95 85 74 67 71 114 120 126 127 125 121 121 119 115 112 111 111 107 104 101 98 96 95 85 76 70 54
120 118 113 115 112 113 114 112 108 102 100 102 94 93 84 77 60 72 62 62 58 53 51 57 51 50 33 23 50 82 73 56 8 6 11 13 17 37 37 52 64 59 65 69 83 95 102 112 127 140 141 146 141 126 115 114 112 103 97 87 79 96 122 125 127 130 127 120 120 121 117 114 110 109 106 102 98 97 96 97 88 81 70 58 55
116 113 113 108 111 109 105 103 98 95 98 100 103 97 77 61 75 62 67 57 56 54 56 61 66 61 56 68 88 87 84 83 69 41 26 28 15 18 26 42 66 62 73 85 95 109 112 113 115 121 122 124 132 131 126 116 110 112 93 93 113 128 123 128 129 126 123 122 121 119 112 110 108 106 101 98 96 93 94 87 78 68 62 60 62
101 105 106 105 106 101 97 93 91 92 97 104 105 100 87 87 87 91 96 103 78 78 85 74 83 97 102 93 89 85 85 81 75 60 61 50 30 8 31 56 63 71 81 95 108 115 111 109 109 106 106 107 125 125 122 115 110 105 100 115 128 124 126 126 125 123 124 124 121 115 107 105 103 100 96 94 92 89 84 78 69 63 62 65 71
88 95 96 96 98 97 93 89 87 89 98 104 106 103 102 100 95 92 92 92 95 97 97 92 94 90 97 95 89 88 83 80 67 52 54 38 45 35 33 54 72 86 94 106 110 107 105 106 106 110 104 123 127 126 128 128 120 116 124 127 122 124 125 124 121 123 123 122 119 107 104 101 99 94 91 89 87 83 76 70 66 64 68 73 79
71 78 82 92 91 90 88 87 83 89 96 103 104 102 100 96 95 96 93 100 108 103 97 94 93 93 94 90 90 82 82 88 68 82 84 84 81 72 85 113 111 102 118 119 112 104 108 108 100 120 135 131 127 125 127 127 126 127 125 122 122 122 122 119 118 121 122 118 115 103 102 98 96 93 89 86 81 76 71 68 67 70 74 79 86
71 76 84 81 83 86 87 85 86 89 93 96 95 94 92 94 95 91 91 99 103 105 102 97 94 93 92 89 84 80 82 83 84 83 82 81 86 105 120 128 132 129 134 125 125 124 126 122 121 127 127 127 125 125 126 127 126 126 125 122 122 122 120 118 118 119 119 115 111 100 100 97 94 91 86 80 75 73 70 73 75 75 78 84 88
74 69 66 72 74 82 82 84 83 88 91 92 87 85 88 89 91 86 86 95 97 101 104 100 95 94 89 84 82 84 87 87 87 84 85 82 88 105 118 127 132 131 128 128 127 126 123 122 119 122 124 123 120 121 122 122 123 125 124 123 120 119 118 117 118 118 115 111 109 97 97 97 93 90 85 78 75 73 75 79 80 82 83 86 86
71 69 69 71 69 76 77 76 78 86 91 93 93 92 86 86 85 82 81 88 93 94 96 97 96 94 92 84 84 90 89 88 87 87 87 84 86 99 112 124 131 131 129 129 124 125 120 118 120 118 118 118 120 120 122 122 120 122 121 119 118 118 117 117 117 116 110 109 106 93 95 94 91 87 85 80 78 78 79 82 85 86 88 87 82
77 68 70 70 66 58 62 65 76 80 88 89 94 90 88 84 79 74 81 77 85 87 89 89 93 98 88 87 88 92 88 87 86 89 86 85 86 95 109 119 125 127 125 124 124 123 121 116 117 116 118 117 118 119 120 120 118 118 117 116 117 116 115 115 114 112 110 107 108 96 92 90 89 86 85 83 82 82 83 84 85 90 90 87 84
67 62 67 64 63 56 50 55 68 72 82 85 91 91 90 85 83 78 77 74 86 84 83 87 89 90 88 86 91 94 96 90 89 89 88 89 89 95 107 115 119 123 123 123 120 117 114 115 115 116 117 117 117 116 118 117 115 114 111 112 113 113 113 112 110 108 105 104 103 99 84 84 85 83 83 84 84 84 83 84 88 90 90 88 87
61 57 58 64 65 56 47 48 57 68 76 83 91 87 87 85 83 77 79 85 83 81 81 82 88 85 88 92 97 96 94 88 89 92 90 92 91 93 101 110 113 116 118 115 114 113 113 115 116 115 116 116 115 112 112 113 112 112 109 107 108 107 108 107 105 102 103 102 100 100 83 81 82 83 83 86 88 87 85 88 90 91 89 86 88
60 57 60 64 64 51 55 54 55 65 73 82 88 86 85 85 84 81 84 83 82 79 77 80 84 87 90 97 99 98 95 94 91 92 93 92 93 94 99 104 108 110 112 113 114 114 115 114 115 115 115 115 114 114 113 110 111 109 107 104 104 106 106 107 106 104 101 99 103 101 99 81 81 83 85 88 88 90 91 92 93 92 89 89 90
60 57 65 68 60 50 55 57 52 57 59 76 85 88 84 88 90 86 86 85 84 81 77 76 77 84 91 97 96 97 94 95 93 95 93 93 94 95 97 98 102 106 109 110 113 114 113 114 114 116 115 116 116 116 115 110 110 107 106 103 107 104 104 104 104 102 102 103 102 101 101 100 84 85 88 89 89 90 93 95 95 94 93 92 93
84 68 67 63 54 55 58 59 50 50 49 65 83 92 96 98 97 93 92 90 87 84 77 77 80 84 88 93 97 93 95 93 95 94 96 96 95 96 98 99 101 103 106 108 111 113 116 118 118 118 118 118 121 122 121 120 117 113 109 108 106 103 105 105 104 103 100 100 100 99 99 100 104 96 91 91 92 92 94 96 96 94 93 93 93
92 96 82 70 67 73 75 75 61 53 60 77 92 97 100 108 108 106 101 97 93 86 84 84 82 84 86 90 94 96 96 97 98 100 102 99 98 98 100 104 105 105 107 110 112 117 120 120 117 120 120 122 121 127 124 121 123 122 114 113 106 102 103 103 101 99 103 101 99 99 95 98 100 103 106 99 93 95 97 97 96 94 94 95 95
103 101 75 74 73 75 78 82 70 74 80 87 90 97 106 116 114 109 107 102 101 95 94 93 86 84 86 88 93 98 99 97 99 98 102 102 101 102 104 107 111 113 115 115 115 118 116 114 116 118 116 119 130 128 128 124 120 115 111 111 102 103 102 99 99 102 103 103 99 95 95 97 99 102 100 102 101 98 99 99 98 95 94 94 96
82 94 100 104 90 92 83 82 75 80 91 93 103 103 106 121 116 109 111 108 106 104 102 97 92 91 91 91 94 98 99 99 101 104 102 103 104 106 109 112 115 119 121 120 117 115 116 116 115 118 127 127 130 126 126 133 129 114 111 109 104 100 95 97 98 101 102 101 95 96 96 99 101 100 97 96 99 102 101 99 98 97 96 95 95
91 97 106 114 112 101 88 83 73 78 98 105 115 124 126 127 118 112 110 111 109 108 108 105 100 95 95 95 97 100 101 100 103 107 107 106 107 110 112 114 119 124 125 123 120 116 116 120 122 126 123 124 128 127 131 134 127 120 118 108 99 94 93 92 95 99 101 92 93 95 97 99 102 98 97 97 98 101 102 98 98 97 97 96 96
105 88 102 102 106 110 105 97 94 93 106 115 117 124 131 142 131 126 124 115 111 111 110 105 100 97 97 96 98 102 104 103 105 108 109 109 112 115 118 119 123 125 125 124 122 123 122 124 126 129 130 129 129 131 132 132 132 131 126 113 97 89 89 89 93 97 88 90 90 91 95 102 103 100 98 98 98 99 102 102 101 99 96 95 95
132 108 113 121 137 135 132 115 104 103 111 123 135 144 156 166 155 146 140 131 124 117 113 107 103 102 98 98 98 101 104 106 108 109 111 114 118 120 119 121 123 124 125 125 124 127 129 132 135 134 132 124 118 122 123 129 134 140 136 131 124 113 102 99 90 85 81 86 90 92 98 100 102 103 100 100 99 100 101 103 104 102 100 97 97
154 161 132 135 143 151 152 142 127 116 128 132 143 151 163 169 164 160 157 139 130 124 118 113 112 105 104 100 100 103 106 107 110 111 112 114 117 118 120 123 123 123 122 123 126 134 136 138 140 139 136 133 128 124 129 129 136 144 145 144 133 117 109 88 81 84 86 86 84 94 96 102 101 103 102 100 100 100 100 102 101 99 98 98 97
189 194 170 137 144 159 164 146 145 148 139 134 136 139 148 160 165 146 139 135 131 130 126 125 118 114 110 107 108 108 107 108 111 112 112 115 117 120 121 121 122 121 120 121 128 134 136 137 141 141 140 144 134 133 133 128 136 133 144 146 136 123 114 104 81 78 78 81 84 88 97 101 100 100 101 104 103 101 100 100 100 101 100 99 101
191 206 202 136 149 180 171 159 170 161 143 133 131 129 137 132 142 122 137 137 140 131 130 125 119 120 117 113 113 115 112 108 110 111 115 116 120 118 117 116 118 118 122 126 131 136 143 149 145 148 148 149 140 137 137 132 141 134 140 135 141 135 125 118 96 81 67 69 76 89 96 96 95 97 105 107 105 104 101 100 101 101 100 99 100
246 236 220 184 171 179 178 177 175 169 156 148 152 135 138 137 134 122 106 131 130 126 127 124 124 120 117 116 119 120 117 115 115 114 114 116 115 117 116 120 121 125 131 132 138 138 143 146 150 152 153 154 147 139 141 145 131 129 130 142 144 153 135 140 128 114 78 70 76 88 92 91 89 93 104 108 105 105 104 105 104 102 100 97 97
nan nan 217 218 188 180 180 185 180 177 170 162 158 153 154 148 157 79 94 89 116 144 158 155 143 140 124 123 124 123 123 122 120 121 122 120 117 116 124 129 129 131 133 134 138 138 145 148 154 156 160 159 158 147 147 146 143 138 142 144 133 137 139 131 131 120 111 93 80 90 94 89 86 93 103 103 104 105 105 110 106 102 100 96 93
nan nan 229 225 201 190 180 188 189 179 176 176 176 178 195 191 190 192 195 186 178 176 173 154 134 128 138 130 120 128 127 128 129 131 131 126 126 126 127 125 126 126 132 135 135 137 148 151 153 154 157 156 159 154 150 163 169 147 149 151 146 148 131 120 142 122 141 126 115 106 93 81 80 82 89 99 107 105 106 111 108 106 98 93 91
nan nan 240 246 234 209 195 191 193 186 181 184 187 188 195 202 199 200 200 194 180 145 104 99 119 114 108 124 134 131 133 137 137 140 139 139 133 129 127 123 121 125 126 127 137 145 150 156 154 152 158 153 156 170 157 155 165 161 152 141 123 135 135 134 147 133 132 122 122 102 82 89 84 75 87 103 104 104 108 107 110 102 97 91 88
nan nan 237 242 245 234 217 205 201 193 186 190 190 194 197 195 186 174 172 188 273 110 102 93 85 105 130 124 129 136 138 137 138 140 138 135 133 130 126 123 127 127 132 137 137 137 139 144 151 155 151 157 157 159 162 149 156 160 156 142 132 129 134 147 133 132 143 133 nan 132 109 93 89 85 86 93 103 109 106 103 101 99 96 90 84
nan nan 247 241 250 242 233 219 208 207 195 198 195 194 198 190 182 176 172 165 160 96 92 90 123 131 122 123 140 134 137 136 133 132 132 133 134 132 135 137 138 139 144 141 135 136 138 143 149 147 148 152 153 154 154 159 164 142 144 150 151 144 141 142 144 135 125 132 139 138 133 137 85 76 74 88 95 99 107 105 95 92 91 88 77
nan nan 262 255 254 249 243 231 225 218 205 203 205 190 194 196 191 188 182 165 170 182 182 173 160 152 148 141 132 132 133 131 130 127 128 132 136 139 145 149 151 149 155 154 148 141 138 138 145 147 145 150 154 153 162 150 160 153 150 149 152 152 151 165 159 151 141 147 140 148 138 144 146 106 81 75 74 79 89 87 81 79 79 79 74
nan nan nan 254 254 248 245 242 233 226 219 206 205 195 190 201 200 190 193 183 180 184 189 191 169 167 159 138 134 133 130 133 133 131 128 131 137 147 153 151 149 154 157 156 159 151 149 144 137 140 143 151 148 148 150 144 146 141 141 140 159 148 161 163 161 161 148 154 148 143 138 152 158 131 128 62 52 39 66 75 74 68 63 63 74
nan nan nan 262 257 257 253 253 246 235 232 220 210 200 193 196 198 193 192 195 190 191 189 186 184 176 164 149 149 135 144 136 137 135 130 133 138 145 150 150 155 155 158 162 155 148 149 153 155 150 144 143 144 147 150 152 149 149 144 144 147 147 147 152 142 145 147 147 158 152 156 159 147 143 129 77 61 17 23 46 58 62 55 56 65